{"data":{"norad_id":58552,"intl_designator":"2023-192X","name":"STARLINK-31046","alt_names":[],"object_type":"PAYLOAD","status":"ACTIVE","operator":null,"country":"US","launch_date":"2023-12-08","launch_site_code":"AFWTR","launch_vehicle":null,"mission":null,"orbit_class":"UNKNOWN","rcs_meters":null,"size_class":null,"mass_kg":null,"dimensions":null,"purposes":["comms"],"wikipedia_slug":null,"has_3d_model":false,"image_url":null,"decayed_at":null,"tle_current":{"epoch":"2026-09-20T08:14:33.954720Z","epoch_age_seconds":163384,"freshness":"FRESH","line1":"1 58552U 23192X   26263.34344855  .00001120  00000+0  44291-4 0  9994","line2":"2 58552  53.1594 234.6283 0001554  85.5337 274.5843 15.34393353155843","mean_motion":15.34393353,"eccentricity":0.0001554,"inclination_deg":53.1594,"raan_deg":234.6283,"arg_perigee_deg":85.5337,"mean_anomaly_deg":274.5843,"bstar":4.4291e-5,"rev_number":15584,"period_min":93.848164630312,"perigee_km":461.65992691975,"apogee_km":463.78606620668,"semimajor_km":6840.8599965632,"source":"CELESTRAK","updated_at":"2026-09-21T09:00:33.916544Z"}}}